Time,TemperatureF,DewpointF,PressureIn,WindDirection,WindDirectionDegrees,WindSpeedMPH,WindSpeedGustMPH,Humidity,HourlyPrecipIn,Conditions,Clouds,dailyrainin,SolarRadiationWatts/m^2,SoftwareType,DateUTC
2013-02-10 00:11:00,40.0,24.0,-100.00,NNW,340,5.0,8.0,51,-99.99,,,0.00,0.120000,,2013-02-10 08:11:00,
2013-02-10 01:11:00,35.0,28.0,-100.00,West,261,3.0,6.0,75,-99.99,,,-99.99,0.120000,,2013-02-10 09:11:00,
2013-02-10 02:11:00,34.0,28.0,-100.00,ENE,71,4.0,6.0,79,-99.99,,,0.00,0.120000,,2013-02-10 10:11:00,
2013-02-10 03:11:00,33.0,29.0,-100.00,ENE,72,3.0,4.0,83,-99.99,,,0.00,0.120000,,2013-02-10 11:11:00,
2013-02-10 04:12:00,32.0,29.0,-100.00,ENE,66,3.0,5.0,87,-99.99,,,0.00,0.120000,,2013-02-10 12:12:00,
2013-02-10 05:11:00,33.0,30.0,-100.00,ENE,78,4.0,7.0,88,-99.99,,,0.00,0.120000,,2013-02-10 13:11:00,
2013-02-10 06:11:00,32.0,29.0,-100.00,East,79,5.0,8.0,87,-99.99,,,0.00,0.120000,,2013-02-10 14:11:00,
2013-02-10 07:01:00,32.0,28.0,-100.00,East,79,3.0,9.0,86,-99.99,,,0.00,0.120000,,2013-02-10 15:01:00,
2013-02-10 07:11:00,32.0,28.0,-100.00,East,79,3.0,9.0,86,-99.99,,,0.00,0.120000,,2013-02-10 15:11:00,
2013-02-10 08:11:00,31.0,28.0,-100.00,East,81,5.0,8.0,88,-99.99,,,0.00,4.530000,,2013-02-10 16:11:00,
2013-02-10 09:11:00,33.0,29.0,-100.00,East,81,7.0,12.0,85,-99.99,,,0.00,125.870003,,2013-02-10 17:11:00,
2013-02-10 14:42:00,41.0,32.0,-100.00,East,83,3.0,8.0,69,-99.99,,,0.00,392.709991,,2013-02-10 22:42:00,
2013-02-10 14:52:00,41.0,32.0,-100.00,East,83,3.0,8.0,69,-99.99,,,0.00,392.709991,,2013-02-10 22:52:00,
2013-02-10 15:01:00,41.0,32.0,-100.00,East,83,3.0,8.0,69,-99.99,,,0.00,392.709991,,2013-02-10 23:01:00,
2013-02-10 15:11:00,41.0,32.0,-100.00,East,83,3.0,8.0,69,-99.99,,,0.00,392.709991,,2013-02-10 23:11:00,
2013-02-10 16:02:00,41.0,29.0,-100.00,SSE,166,6.0,11.0,63,-99.99,,,0.00,269.859985,,2013-02-11 00:02:00,
2013-02-10 16:11:00,41.0,29.0,-100.00,SSE,166,6.0,11.0,63,-99.99,,,0.00,269.859985,,2013-02-11 00:11:00,
2013-02-10 17:11:00,39.0,29.0,-100.00,SSW,210,1.0,6.0,67,-99.99,,,0.00,147.369995,,2013-02-11 01:11:00,
2013-02-10 18:11:00,37.0,30.0,-100.00,East,99,3.0,9.0,74,-99.99,,,0.00,6.390000,,2013-02-11 02:11:00,
2013-02-10 19:11:00,35.0,29.0,-100.00,East,82,2.0,8.0,76,-99.99,,,0.00,0.000000,,2013-02-11 03:11:00,
2013-02-10 20:11:00,36.0,29.0,-100.00,East,79,3.0,9.0,77,-99.99,,,0.00,0.000000,,2013-02-11 04:11:00,
2013-02-10 21:11:00,35.0,29.0,-100.00,East,90,3.0,9.0,79,-99.99,,,0.00,0.000000,,2013-02-11 05:11:00,
2013-02-10 22:11:00,34.0,29.0,-100.00,East,85,5.0,10.0,79,-99.99,,,0.00,0.120000,,2013-02-11 06:11:00,
2013-02-10 23:11:00,34.0,28.0,-100.00,ENE,76,7.0,10.0,78,-99.99,,,0.00,0.120000,,2013-02-11 07:11:00,